User: anonymous   Login
Location: Unspecified
(0.0000°N, 0.0000°E)
Time: 09:16:09
(UTC+00:00)
Language:

Spot 1 - Orbit

View from above orbital plane
View from above orbital plane
View from above satellite
View from above satellite

Ground track
Ground track

The orbit data is extracted from the following two-line orbital elements,

1 16613U 86019A   18018.23325247 +.00000086 +00000-0 +23732-4 0  9992
2 16613 098.6892 084.6880 0143827 094.4457 302.7648 14.64994948360730
Epoch (UTC): 18 January 2018 05:35:53
Eccentricity: 0.0143827
inclination: 98.6892°
perigee height: 575 km
apogee height: 778 km
right ascension of ascending node: 84.6880°
argument of perigee: 94.4457°
revolutions per day: 14.64994948
mean anomaly at epoch: 302.7648°
orbit number at epoch: 36073

The dashed part of the orbit path shows where the satellite is in the earth's shadow,  

DLR